Flag for France Weather past 2 weeks in Brest, France

Now
55 °F

Passing clouds.


Feels Like: 50 °F
Forecast: 53 / 61 °F
Wind: 25 mph from Southwest

Location: Brest Airport

Current Time: Jun 2, 2015 at 3:42:33 AM

Latest Report: Jun 2, 2015 at 3:00 AM


Visibility: N/A

Pressure: 29.83 "Hg

Humidity: 88%

Dew point: 52 °F

Location of BrestLocation

Historic Weather in Brest — Graph

°F

Brest temperature yesterday

Maximum temperature yesterday: 59 °F (at 2:30 PM)
Minimum temperature yesterday: 43 °F (at 1:30 AM)
Average temperature yesterday: 52 °F

Past Weeks' High & Low Weather Summary

 TemperatureHumidityPressure
High66 °F (May 23, 3:30 PM)100% (May 18, 8:30 AM)30.45 "Hg (May 18, 8:30 AM)
Low43 °F (May 20, 5:30 AM)51% (May 18, 6:00 PM)29.80 "Hg (May 31, 7:30 AM)
Average54 °F80%30.14 "Hg
* Reported May 18 2:00 AM — Jun 2 2:30 AM, Brest, Weather by CustomWeather, © 2015

Note: Actual official high and low records may vary slightly from our data, if they occured in-between our weather recording intervals... More about our weather records

Advertising

Brest weather history for previous 24 hours

 ConditionsComfort  
Time TempWeatherWind HumidityBarometerVisibility
2:30 AM
Tue, Jun 2
55 °FLight rain. Passing clouds.28 mph88%29.86 "HgN/A
2:00 AM55 °FPassing clouds.24 mph88%29.86 "HgN/A
1:30 AM55 °FPassing clouds.25 mph88%29.86 "HgN/A
1:00 AM55 °FPassing clouds.26 mph82%29.86 "HgN/A
12:30 AM55 °FPassing clouds.25 mph88%29.86 "HgN/A
12:00 AM55 °FLight rain. Passing clouds.23 mph82%29.86 "HgN/A
11:30 PM
Mon, Jun 1
55 °FPassing clouds.23 mph82%29.89 "HgN/A
11:00 PM55 °FPartly sunny.25 mph82%29.89 "HgN/A
10:30 PM55 °FPartly sunny.24 mph82%29.89 "HgN/A
10:00 PM55 °FPartly sunny.23 mph82%29.89 "HgN/A
9:30 PM55 °FPartly sunny.23 mph77%29.89 "HgN/A
9:00 PM55 °FPartly sunny.22 mph77%29.92 "HgN/A
8:30 PM55 °FBroken clouds.22 mph72%29.92 "HgN/A
8:00 PM55 °FBroken clouds.24 mph72%29.92 "HgN/A
7:30 PM55 °FBroken clouds.25 mph67%29.92 "HgN/A
7:00 PM55 °FBroken clouds.21 mph67%29.95 "HgN/A
6:30 PM55 °FBroken clouds.25 mph67%29.95 "HgN/A
6:00 PM55 °FBroken clouds.24 mph67%29.95 "HgN/A
5:30 PM57 °FPartly sunny.26 mph63%29.98 "HgN/A
5:00 PM57 °FBroken clouds.26 mph63%29.98 "HgN/A
4:30 PM57 °FBroken clouds.24 mph59%29.98 "HgN/A
4:00 PM57 °FBroken clouds.25 mph59%30.01 "HgN/A
3:30 PM59 °FScattered clouds.26 mph55%29.98 "HgN/A
3:00 PM57 °FScattered clouds.24 mph55%30.01 "HgN/A
2:30 PM59 °FScattered clouds.23 mph55%30.01 "HgN/A
2:00 PM57 °FPartly sunny.22 mph59%30.01 "HgN/A
1:30 PM57 °FBroken clouds.22 mph59%30.04 "HgN/A
1:00 PM55 °FBroken clouds.20 mph63%30.04 "HgN/A
12:30 PM57 °FScattered clouds.17 mph59%30.04 "HgN/A
11:30 AM55 °FBroken clouds.17 mph63%30.07 "HgN/A
11:00 AM54 °FScattered clouds.14 mph67%30.07 "HgN/A
10:30 AM54 °FScattered clouds.14 mph67%30.07 "HgN/A
10:00 AM54 °FScattered clouds.14 mph67%30.07 "HgN/A
9:30 AM54 °FScattered clouds.13 mph63%30.07 "HgN/A
9:00 AM54 °FPassing clouds.12 mph67%30.07 "HgN/A
8:30 AM52 °FPassing clouds.9 mph67%30.07 "HgN/A
8:00 AM50 °FPassing clouds.6 mph71%30.07 "HgN/A
7:30 AM46 °FPassing clouds.6 mph76%30.07 "HgN/A
7:00 AM46 °FPassing clouds.3 mph76%30.07 "HgN/A
6:00 AM46 °FPassing clouds.5 mph82%30.07 "HgN/A
5:30 AM46 °FClear.3 mph82%30.07 "Hg10 mi
5:00 AM46 °FClear.5 mph82%30.07 "Hg10 mi
4:30 AM46 °FClear.5 mph82%30.07 "Hg10 mi
4:11 AM46 °FPassing clouds.5 mph82%30.07 "HgN/A
3:30 AM46 °FPassing clouds.3 mph82%30.07 "HgN/A
3:00 AM46 °FPassing clouds.3 mph82%30.07 "HgN/A
Weather by CustomWeather, © 2015

See weather overviewHow to use our weather pages